Location: Lawrence Hall of Science
(37.8785°N, 122.2415°W)
Time: 06:52:24
(UTC-07:00)

Cosmos 2151 - Visible Passes

Search period start: 26 April 2017 00:00
Search period end: 06 May 2017 00:00
Orbit: 581 x 603 km, 82.5° (Epoch: 24 April)

Date Brightness Start Highest point End Pass type
(mag) Time Alt. Az. Time Alt. Az. Time Alt. Az.
29 Apr 6.4 05:14:25 10° E 05:15:23 11° E 05:16:22 10° ENE visible
30 Apr 5.9 05:21:24 10° SE 05:24:08 17° E 05:26:50 10° NE visible
01 May 5.4 05:29:24 10° SE 05:32:54 26° E 05:36:24 10° NNE visible
02 May 4.5 05:37:46 10° SSE 05:41:43 40° E 05:45:40 10° NNE visible
05 May 6.1 04:30:12 10° ESE 04:31:36 11° E 04:32:59 10° ENE visible
